[[{"header":{"parameterUnit":"m.s-1","parameterCategory":1,"la1":30.2992,"la2":30.254,"lo1":-89.0895,"lo2":-89.0443,"dy":0.0025,"dx":0.0025,"nx":19,"ny":19,"refTime":"2026-04-28T09:00:00:Z","depth":0,"parameterNumber":2,"parameterNumberName":"U-component_of_WINDS"},"data":[0,0,0,0.948,0.9481,0.9521,0.9521,0.9575,0.9576,0,0,0,0,0,0,0,0,0,0,0,0.9472,0.9472,0.948,0.9481,0.9521,0.9521,0.9575,0.9576,0,0,0,0,0,0,0,0,0,0,0,0.9471,0.9472,0.9473,0.9481,0.9521,0.9521,0.9575,0.9544,0,0,0,0,0,0,0,0,0,0,0.9504,0.95,0.9472,0.9473,0.9481,0.9521,0.9521,0.9542,0.9546,0.9559,0,0.9573,0,0.9576,0.958,0.958,0,0,0,0.9478,0.9497,0.9505,0.9473,0.9482,0.9521,0.9502,0.9544,0.9548,0.9564,0.9574,0.9576,0.9577,0.958,0.9581,0.967,0.967,0,0,0.9476,0.948,0.9502,0.9508,0.9503,0.9501,0.9503,0.9546,0.9557,0.9574,0.9577,0.9577,0.9581,0.9581,0.9669,0.967,0,0,0,0.9472,0.9479,0.9486,0.9506,0.9512,0.9502,0.9505,0.9555,0.9557,0.9578,0.9578,0.9581,0.9582,0.9669,0.9669,0.97,0,0,0,0.947,0.9476,0.9485,0.9488,0.9512,0.9535,0.9513,0.9554,0.9559,0.9578,0.9581,0.9582,0.9668,0.9669,0.9698,0.9713,0,0,0,0.9468,0.9476,0.9483,0.9488,0.9505,0.9534,0.9538,0.9555,0.9559,0.958,0.9583,0.9668,0.9669,0.9696,0.971,0.9737,0,0,0,0.9466,0.951,0.9483,0.9532,0.9505,0.9553,0.9538,0.9573,0.9595,0.9581,0.9668,0.9669,0.9695,0.9708,0.9735,0.9761,0.9772,0,0,0.9523,0.9517,0.9545,0.9522,0.9576,0.9546,0.9604,0.962,0.9618,0.9652,0.9654,0.9698,0.971,0.9737,0.9833,0.9842,0,0,0,0.9564,0.9584,0.9598,0.9619,0.9632,0.9644,0.9651,0.9656,0.9685,0.9637,0.9716,0.9723,0.9738,0.975,0.9757,0.977,0.9675,0.9675,0.9675,0.965,0.9646,0.9691,0.9691,0.9712,0.9718,0.9733,0.9742,0.9731,0.975,0.976,0.9819,0.9833,0.9839,0.9852,0.9773,0.9773,0.9773,0.9774,0.9733,0.976,0.9744,0.9783,0.9777,0.981,0.9817,0.9808,0.9836,0.9811,0.9825,0.9797,0.9849,0.986,0.9776,0.9775,0.9775,0.9775,0.9775,0.9788,0.98,0.9807,0.9836,0.9859,0.9856,0.9884,0.9878,0.9873,0.9886,0.9895,0.9895,0.9893,0.9891,0.9891,0.9891,0.9892,0.9892,0.9892,0.9843,0.9849,0.9874,0.9891,0.9903,0.9918,0.9924,0.9935,0.9946,0.9939,0.9939,0.9926,0.9855,0.9837,0.9895,0.9894,0.9894,0.9894,0.9894,0.9927,0.9907,0.9945,0.9957,0.9976,0.9998,0.999,1.0014,1.0022,1.0036,1.002,0.9968,0.9961,0.9955,0.994,1.0021,1.0021,1.0022,1.0022,0.9974,0.9969,1.0006,1.0026,1.0044,1.004,1.0082,1.0087,1.0088,1.0093,1.008,1.006,1.0054,1.005,1.0042,1.0027,1.0129,1.013,1.013,1.0025,1.0022,1.0059,1.006,1.0075,1.0086,1.0125,1.0147,1.0145,1.0134,1.0096,1.0091,1.0058,1.0048,1.0036,1.0023,0.9997,0,0]},{"header":{"parameterUnit":"m.s-1","parameterCategory":1,"la1":30.2992,"la2":30.254,"lo1":-89.0895,"lo2":-89.0443,"dy":0.0025,"dx":0.0025,"nx":19,"ny":19,"refTime":"2026-04-28T09:00:00:Z","depth":0,"parameterNumber":3,"parameterNumberName":"V-component_of_WINDS"},"data":[0,0,0,2.6014,2.6015,2.6027,2.6027,2.6041,2.6042,0,0,0,0,0,0,0,0,0,0,0,2.6011,2.6011,2.6014,2.6015,2.6027,2.6027,2.6041,2.6042,0,0,0,0,0,0,0,0,0,0,0,2.6011,2.6011,2.6011,2.6015,2.6027,2.6027,2.6041,2.6032,0,0,0,0,0,0,0,0,0,0,2.602,2.6017,2.6011,2.6011,2.6015,2.6027,2.6027,2.6032,2.6033,2.6035,0,2.6039,0,2.604,2.6042,2.6043,0,0,0,2.6014,2.6017,2.602,2.6011,2.6015,2.6027,2.6021,2.6032,2.6034,2.6037,2.6039,2.6039,2.6041,2.6043,2.6043,2.6059,2.6059,0,0,2.6014,2.6013,2.6019,2.6021,2.602,2.6021,2.6022,2.6033,2.6035,2.6039,2.604,2.6041,2.6043,2.6043,2.6059,2.6059,0,0,0,2.6012,2.6012,2.6015,2.602,2.6022,2.6021,2.6022,2.6034,2.6036,2.604,2.6041,2.6043,2.6043,2.6059,2.6059,2.6062,0,0,0,2.6012,2.6011,2.6015,2.6015,2.6022,2.6029,2.6023,2.6035,2.6036,2.6041,2.6043,2.6043,2.6059,2.6059,2.6062,2.6064,0,0,0,2.601,2.6011,2.6013,2.6015,2.602,2.6029,2.603,2.6035,2.6037,2.6043,2.6043,2.6059,2.6059,2.6062,2.6064,2.6068,0,0,0,2.6008,2.6016,2.6013,2.6022,2.602,2.6031,2.603,2.6039,2.6044,2.6043,2.6059,2.6059,2.6062,2.6063,2.6067,2.607,2.6072,0,0,2.6018,2.6017,2.6023,2.602,2.6032,2.6029,2.604,2.6046,2.6047,2.6055,2.6055,2.6062,2.6064,2.6067,2.6081,2.6082,0,0,0,2.6025,2.6029,2.6032,2.6038,2.6042,2.6046,2.605,2.6052,2.6058,2.6051,2.6065,2.6066,2.6068,2.607,2.6071,2.6072,2.606,2.606,2.606,2.6038,2.6039,2.6048,2.605,2.6055,2.6059,2.6062,2.6065,2.6065,2.6068,2.607,2.6079,2.608,2.6081,2.6083,2.6073,2.6073,2.6073,2.6073,2.6052,2.6057,2.6056,2.6064,2.6065,2.6072,2.6075,2.6074,2.608,2.6077,2.6079,2.6076,2.6082,2.6084,2.6073,2.6073,2.6073,2.6073,2.6073,2.6059,2.6062,2.6064,2.6071,2.6076,2.6078,2.6083,2.6084,2.6084,2.6086,2.6088,2.6088,2.6088,2.6087,2.6087,2.6087,2.6087,2.6087,2.6087,2.6066,2.6069,2.6074,2.6079,2.6081,2.6085,2.6088,2.6091,2.6094,2.6093,2.6093,2.6092,2.6083,2.608,2.6088,2.6088,2.6088,2.6088,2.6088,2.6079,2.6076,2.6084,2.6086,2.6092,2.6096,2.6096,2.6101,2.6104,2.6106,2.6104,2.6098,2.6097,2.6096,2.6094,2.6105,2.6105,2.6105,2.6105,2.6085,2.6085,2.6092,2.6097,2.6101,2.6102,2.6109,2.6111,2.6113,2.6114,2.6112,2.6109,2.6109,2.6109,2.6108,2.6105,2.6119,2.6119,2.6119,2.6093,2.6093,2.6099,2.6101,2.6105,2.6108,2.6114,2.6119,2.612,2.6119,2.6114,2.6114,2.6109,2.6108,2.6107,2.6105,2.6101,0,0]}]]